Location: Palomar Mountain Lodge
(33.3110°N, 116.8495°W)
Time: 10:58:35
(UTC-07:00)

Envisat - Pass Details

Date: 19 May 2017
Orbit: 764 x 766 km, 98.2° (Epoch: 26 September)

Event Time Altitude Azimuth Distance (km) Brightness Sun altitude
Exits shadow 20:17:34 - 140° (SE) 2,584 5.1 -7.1°
Reaches altitude 10° 20:18:22 10° 137° (SE) 2,292 4.9 -7.3°
Maximum altitude 20:22:58 36° 72° (ENE) 1,190 3.7 -8.1°
Drops below altitude 10° 20:27:34 10° 6° (N) 2,303 5.8 -8.9°
Sets 20:30:01 0° 358° (N) 3,232 6.7 -9.4°
